COA208X SAWC-SABE

Flight info

Callsign COA208X
Flight time N/A
Altitude 33000
Route BOKU2G BOKUK UW48 CRV UP664 TRE UT693 BCA UW22 VALOS VALO9R
Aircraft MD82/M-VGDW/C

Departure

Time 2026-04-28 17:29
Airport El Calafate - Commander Armando Tola International Airport (SAWC)

Arrival

Time N/A
Airport Aeroparque Jorge Newbery (SABE)
Time Latitude Longitude Altitude Speed Heading
2026-04-28 17:02 -50.28347 -72.05515 653 ft 0 kts 173°
2026-04-28 17:17 -50.28343 -72.05516 653 ft 2 kts 173°
2026-04-28 17:18 -50.28328 -72.05519 652 ft 2 kts 173°
2026-04-28 17:18 -50.28313 -72.05522 652 ft 1 kts 173°
2026-04-28 17:18 -50.28304 -72.05524 652 ft 2 kts 168°
2026-04-28 17:18 -50.28290 -72.05534 652 ft 2 kts 142°
2026-04-28 17:19 -50.28280 -72.05551 652 ft 2 kts 123°
2026-04-28 17:19 -50.28274 -72.05572 652 ft 2 kts 103°
2026-04-28 17:19 -50.28273 -72.05591 652 ft 0 kts 87°
2026-04-28 17:19 -50.28274 -72.05602 652 ft 0 kts 84°
2026-04-28 17:22 -50.28272 -72.05564 652 ft 5 kts 85°
2026-04-28 17:23 -50.28254 -72.05421 651 ft 8 kts 45°
2026-04-28 17:23 -50.28184 -72.05404 651 ft 13 kts 356°
2026-04-28 17:23 -50.28097 -72.05415 650 ft 11 kts 355°
2026-04-28 17:23 -50.28032 -72.05367 650 ft 16 kts 71°
2026-04-28 17:24 -50.28006 -72.05019 647 ft 36 kts 84°
2026-04-28 17:24 -50.27984 -72.04644 646 ft 34 kts 85°
2026-04-28 17:24 -50.27962 -72.04269 644 ft 35 kts 84°
2026-04-28 17:24 -50.27956 -72.04015 642 ft 9 kts 83°
2026-04-28 17:25 -50.27946 -72.04005 642 ft 1 kts 316°
2026-04-28 17:25 -50.27984 -72.04639 645 ft 47 kts 264°
2026-04-28 17:25 -50.28017 -72.05179 648 ft 52 kts 264°
2026-04-28 17:26 -50.28052 -72.05780 652 ft 57 kts 265°
2026-04-28 17:26 -50.28090 -72.06411 653 ft 57 kts 264°
2026-04-28 17:26 -50.28126 -72.06883 652 ft 27 kts 248°
2026-04-28 17:26 -50.28159 -72.07059 652 ft 9 kts 300°
2026-04-28 17:27 -50.28138 -72.07063 652 ft 4 kts 52°
2026-04-28 17:27 -50.28126 -72.06999 652 ft 5 kts 81°
2026-04-28 17:27 -50.28123 -72.06965 652 ft 0 kts 84°
2026-04-28 17:28 -50.28119 -72.06891 652 ft 29 kts 84°
2026-04-28 17:28 -50.27994 -72.04811 653 ft 154 kts 86°
2026-04-28 17:28 -50.27885 -72.03059 1218 ft 161 kts 84°
2026-04-28 17:29 -50.27741 -72.01350 1794 ft 170 kts 82°
2026-04-28 17:29 -50.27623 -71.99496 2428 ft 173 kts 86°
2026-04-28 17:29 -50.27538 -71.97634 3084 ft 176 kts 85°
2026-04-28 17:30 -50.27156 -71.93469 3796 ft 220 kts 62°
2026-04-28 17:30 -50.24511 -71.90546 4909 ft 253 kts 14°
2026-04-28 17:30 -50.22754 -71.90450 5671 ft 259 kts 343°
2026-04-28 17:31 -50.21202 -71.91747 6668 ft 256 kts 319°
2026-04-28 17:31 -50.17858 -71.93601 8334 ft 266 kts 345°
2026-04-28 17:32 -50.14182 -71.94447 9874 ft 267 kts 346°
2026-04-28 17:32 -50.12941 -71.94694 9974 ft 272 kts 346°
2026-04-28 17:32 -50.10410 -71.95151 9971 ft 275 kts 347°
2026-04-28 17:32 -50.08502 -71.95456 9961 ft 274 kts 349°
2026-04-28 17:33 -50.06580 -71.95740 9963 ft 274 kts 348°
2026-04-28 17:33 -50.04682 -71.95811 9933 ft 280 kts
2026-04-28 17:33 -50.02815 -71.94855 9953 ft 291 kts 23°
2026-04-28 17:33 -50.01672 -71.93658 9977 ft 294 kts 29°
2026-04-28 17:34 -49.99446 -71.91253 9926 ft 295 kts 28°
2026-04-28 17:34 -49.97761 -71.89437 9926 ft 294 kts 28°
2026-04-28 17:34 -49.96084 -71.87636 9914 ft 294 kts 28°
2026-04-28 17:34 -49.94385 -71.85819 9906 ft 295 kts 29°
2026-04-28 17:35 -49.92701 -71.84017 9907 ft 295 kts 28°
2026-04-28 17:35 -49.91003 -71.82211 9917 ft 297 kts 29°
2026-04-28 17:35 -49.89297 -71.80392 9904 ft 295 kts 29°
2026-04-28 17:35 -49.87627 -71.78616 9910 ft 294 kts 28°
2026-04-28 17:36 -49.85943 -71.76824 9911 ft 294 kts 28°
2026-04-28 17:36 -49.84252 -71.75033 9916 ft 295 kts 28°
2026-04-28 17:36 -49.82558 -71.73244 9911 ft 295 kts 27°
2026-04-28 17:36 -49.80843 -71.71452 9914 ft 298 kts 28°
2026-04-28 17:37 -49.79036 -71.69576 10001 ft 328 kts 29°
2026-04-28 17:37 -49.77134 -71.67583 10802 ft 333 kts 29°
2026-04-28 17:37 -49.75211 -71.65569 11484 ft 344 kts 28°
2026-04-28 17:37 -49.73203 -71.63468 12260 ft 350 kts 29°
2026-04-28 17:38 -49.71191 -71.61357 13054 ft 355 kts 29°
2026-04-28 17:38 -49.69143 -71.59209 13901 ft 357 kts 29°
2026-04-28 17:38 -49.67076 -71.57049 14619 ft 363 kts 30°
2026-04-28 17:38 -49.64996 -71.54861 15454 ft 364 kts 29°
2026-04-28 17:39 -49.62910 -71.52676 16236 ft 366 kts 30°
2026-04-28 17:39 -49.60808 -71.50474 16929 ft 370 kts 30°
2026-04-28 17:39 -49.56559 -71.46014 18363 ft 373 kts 30°
2026-04-28 17:40 -49.54427 -71.43770 19057 ft 376 kts 32°
2026-04-28 17:40 -49.52277 -71.41394 19647 ft 380 kts 32°
2026-04-28 17:40 -49.50152 -71.39056 20261 ft 383 kts 32°
2026-04-28 17:40 -49.47979 -71.36663 20886 ft 386 kts 32°
2026-04-28 17:41 -49.45798 -71.34267 21453 ft 389 kts 31°
2026-04-28 17:41 -49.43591 -71.31842 22028 ft 392 kts 31°
2026-04-28 17:41 -49.41366 -71.29398 22601 ft 394 kts 31°
2026-04-28 17:41 -49.39132 -71.26942 23105 ft 398 kts 31°
2026-04-28 17:42 -49.36895 -71.24483 23638 ft 401 kts 31°
2026-04-28 17:42 -49.35370 -71.22810 23916 ft 404 kts 31°
2026-04-28 17:42 -49.32333 -71.19469 24745 ft 403 kts 31°
2026-04-28 17:42 -49.30074 -71.16991 25147 ft 407 kts 31°
2026-04-28 17:43 -49.27787 -71.14476 25766 ft 406 kts 30°
2026-04-28 17:43 -49.25476 -71.11932 26252 ft 408 kts 31°
2026-04-28 17:43 -49.23176 -71.09405 26745 ft 409 kts 30°
2026-04-28 17:43 -49.20863 -71.06864 27272 ft 410 kts 31°
2026-04-28 17:44 -49.18555 -71.04324 27695 ft 411 kts 30°
2026-04-28 17:44 -49.16224 -71.01759 28152 ft 412 kts 30°
2026-04-28 17:44 -49.13907 -70.99207 28670 ft 411 kts 29°
2026-04-28 17:44 -49.11597 -70.96665 29131 ft 411 kts 29°
2026-04-28 17:45 -49.09286 -70.94132 29368 ft 415 kts 28°
2026-04-28 17:45 -49.06914 -70.91592 29985 ft 411 kts 28°
2026-04-28 17:45 -49.04582 -70.89095 30206 ft 416 kts 28°
2026-04-28 17:45 -49.02228 -70.86567 30605 ft 415 kts 28°
2026-04-28 17:46 -48.99883 -70.84045 31236 ft 407 kts 28°
2026-04-28 17:46 -48.97587 -70.81577 31630 ft 407 kts 28°
2026-04-28 17:46 -48.95254 -70.79066 31834 ft 411 kts 28°
2026-04-28 17:46 -48.92929 -70.76565 32134 ft 412 kts 28°
2026-04-28 17:47 -48.90563 -70.74020 32117 ft 421 kts 28°
2026-04-28 17:47 -48.85796 -70.68886 32140 ft 426 kts 29°
2026-04-28 17:48 -48.80913 -70.63619 32139 ft 437 kts 29°
2026-04-28 17:48 -48.76008 -70.58321 32145 ft 435 kts 29°
2026-04-28 17:49 -48.71258 -70.52686 32146 ft 439 kts 37°
2026-04-28 17:49 -48.67182 -70.45630 32163 ft 449 kts 44°
2026-04-28 17:50 -48.63320 -70.38322 32155 ft 447 kts 44°
2026-04-28 17:50 -48.59425 -70.31039 32147 ft 446 kts 43°
2026-04-28 17:51 -48.55518 -70.23779 32144 ft 447 kts 43°
2026-04-28 17:51 -48.51641 -70.16589 32138 ft 446 kts 43°
2026-04-28 17:52 -48.47722 -70.09328 32136 ft 446 kts 43°
2026-04-28 17:52 -48.41206 -69.99724 32164 ft 430 kts 27°
2026-04-28 17:53 -48.36282 -69.94669 32145 ft 429 kts 26°
2026-04-28 17:53 -48.31381 -69.89615 32169 ft 430 kts 27°
2026-04-28 17:54 -48.26448 -69.84520 32165 ft 430 kts 27°
2026-04-28 17:54 -48.21526 -69.79424 32166 ft 431 kts 27°
2026-04-28 17:55 -48.16638 -69.74353 32159 ft 429 kts 27°
2026-04-28 17:55 -48.11756 -69.69287 32160 ft 429 kts 27°
2026-04-28 17:56 -48.06832 -69.64175 32155 ft 432 kts 27°
2026-04-28 17:56 -48.01925 -69.59075 32150 ft 428 kts 27°
2026-04-28 17:57 -47.97048 -69.54004 32158 ft 428 kts 27°
2026-04-28 17:57 -47.92180 -69.48942 32176 ft 432 kts 27°
2026-04-28 17:58 -47.87252 -69.43811 32190 ft 431 kts 26°
2026-04-28 17:58 -47.82364 -69.38724 32184 ft 431 kts 26°
2026-04-28 17:59 -47.77488 -69.33647 32163 ft 428 kts 26°
2026-04-28 17:59 -47.72655 -69.28616 32180 ft 426 kts 26°
2026-04-28 18:00 -47.67776 -69.23650 32175 ft 425 kts 25°
2026-04-28 18:00 -47.62864 -69.18687 32199 ft 430 kts 25°
2026-04-28 18:01 -47.57957 -69.13741 32187 ft 425 kts 25°
2026-04-28 18:01 -47.53097 -69.08849 32186 ft 422 kts 25°
2026-04-28 18:02 -47.48242 -69.03966 32182 ft 424 kts 25°
2026-04-28 18:02 -47.43347 -68.99046 32195 ft 428 kts 25°
2026-04-28 18:03 -47.38468 -68.94138 32213 ft 424 kts 25°
2026-04-28 18:03 -47.33590 -68.89234 32219 ft 428 kts 25°
2026-04-28 18:04 -47.28657 -68.84272 32230 ft 431 kts 25°
2026-04-28 18:04 -47.23725 -68.79305 32237 ft 428 kts 25°
2026-04-28 18:05 -47.19642 -68.75189 32238 ft 431 kts 25°
2026-04-28 18:05 -47.13871 -68.69379 32232 ft 429 kts 26°
2026-04-28 18:06 -47.08978 -68.64447 32240 ft 430 kts 25°
2026-04-28 18:06 -47.04031 -68.59457 32254 ft 433 kts 25°
2026-04-28 18:07 -46.99012 -68.54511 32253 ft 433 kts 25°
2026-04-28 18:07 -46.94049 -68.49651 32255 ft 432 kts 25°
2026-04-28 18:08 -46.89040 -68.44765 32265 ft 431 kts 25°
2026-04-28 18:08 -46.84068 -68.39921 32270 ft 434 kts 25°
2026-04-28 18:09 -46.79074 -68.35049 32271 ft 435 kts 25°
2026-04-28 18:09 -46.74083 -68.30188 32280 ft 435 kts 25°
2026-04-28 18:10 -46.69046 -68.25280 32273 ft 436 kts 25°
2026-04-28 18:10 -46.63992 -68.20354 32263 ft 434 kts 25°
2026-04-28 18:11 -46.58998 -68.15484 32271 ft 435 kts 25°
2026-04-28 18:11 -46.53965 -68.10579 32273 ft 438 kts 25°
2026-04-28 18:12 -46.48917 -68.05651 32276 ft 436 kts 25°
2026-04-28 18:12 -46.43883 -68.00738 32277 ft 438 kts 25°
2026-04-28 18:13 -46.38824 -67.95795 32278 ft 436 kts 25°
2026-04-28 18:13 -46.33804 -67.90910 32279 ft 440 kts 25°
2026-04-28 18:14 -46.28665 -67.86007 32290 ft 443 kts 25°
2026-04-28 18:14 -46.23554 -67.81150 32295 ft 438 kts 25°
2026-04-28 18:15 -46.18448 -67.76305 32303 ft 443 kts 25°
2026-04-28 18:15 -46.13334 -67.71455 32287 ft 444 kts 25°
2026-04-28 18:16 -46.08132 -67.66527 32304 ft 446 kts 25°
2026-04-28 18:16 -46.02983 -67.61643 32334 ft 447 kts 25°
2026-04-28 18:17 -45.97826 -67.56756 32355 ft 447 kts 25°
2026-04-28 18:17 -45.92630 -67.51829 32379 ft 448 kts 25°
2026-04-28 18:18 -45.87405 -67.46871 32404 ft 454 kts 25°
2026-04-28 18:18 -45.83055 -67.42743 32411 ft 454 kts 25°
2026-04-28 18:19 -45.76966 -67.36848 32414 ft 453 kts 25°
2026-04-28 18:19 -45.71649 -67.32184 32397 ft 451 kts 22°
2026-04-28 18:20 -45.66232 -67.27559 32408 ft 453 kts 22°
2026-04-28 18:20 -45.60835 -67.22948 32389 ft 454 kts 22°
2026-04-28 18:21 -45.55410 -67.18317 32381 ft 457 kts 22°
2026-04-28 18:21 -45.49976 -67.13672 32388 ft 455 kts 22°
2026-04-28 18:22 -45.44566 -67.09051 32395 ft 456 kts 22°
2026-04-28 18:22 -45.39088 -67.04366 32391 ft 459 kts 22°
2026-04-28 18:23 -45.33603 -66.99680 32407 ft 460 kts 23°
2026-04-28 18:23 -45.28131 -66.94996 32417 ft 463 kts 23°
2026-04-28 18:24 -45.23566 -66.91091 32416 ft 461 kts 23°
2026-04-28 18:24 -45.17137 -66.85586 32401 ft 461 kts 23°
2026-04-28 18:25 -45.11669 -66.80904 32403 ft 463 kts 23°
2026-04-28 18:26 -45.03373 -66.73803 32416 ft 464 kts 23°
2026-04-28 18:26 -44.97842 -66.69175 32421 ft 467 kts 23°
2026-04-28 18:27 -44.92292 -66.64548 32432 ft 467 kts 23°
2026-04-28 18:27 -44.86640 -66.59846 32438 ft 467 kts 23°
2026-04-28 18:28 -44.81093 -66.55243 32444 ft 468 kts 23°
2026-04-28 18:28 -44.75451 -66.50560 32445 ft 470 kts 22°
2026-04-28 18:29 -44.69832 -66.45890 32447 ft 469 kts 23°
2026-04-28 18:29 -44.64202 -66.41219 32444 ft 472 kts 23°
2026-04-28 18:30 -44.58560 -66.36533 32465 ft 474 kts 23°
2026-04-28 18:30 -44.52872 -66.31805 32459 ft 472 kts 22°
2026-04-28 18:31 -44.47240 -66.27125 32466 ft 476 kts 22°
2026-04-28 18:31 -44.41560 -66.22403 32458 ft 474 kts 22°
2026-04-28 18:32 -44.35883 -66.17683 32484 ft 477 kts 23°
2026-04-28 18:32 -44.30168 -66.12961 32492 ft 477 kts 22°
2026-04-28 18:33 -44.24412 -66.08284 32504 ft 477 kts 22°
2026-04-28 18:33 -44.18641 -66.03615 32492 ft 478 kts 22°
2026-04-28 18:34 -44.12876 -65.98959 32490 ft 480 kts 22°
2026-04-28 18:34 -44.07109 -65.94307 32498 ft 481 kts 22°
2026-04-28 18:35 -44.01347 -65.89658 32497 ft 479 kts 22°
2026-04-28 18:35 -43.95534 -65.84971 32496 ft 483 kts 23°
2026-04-28 18:36 -43.89736 -65.80293 32498 ft 483 kts 22°
2026-04-28 18:36 -43.83950 -65.75617 32511 ft 483 kts 23°
2026-04-28 18:37 -43.78112 -65.70907 32511 ft 487 kts 23°
2026-04-28 18:37 -43.72301 -65.66213 32510 ft 485 kts 23°
2026-04-28 18:38 -43.66478 -65.61510 32516 ft 487 kts 24°
2026-04-28 18:38 -43.60623 -65.56778 32522 ft 486 kts 23°
2026-04-28 18:39 -43.54797 -65.52147 32527 ft 486 kts 23°
2026-04-28 18:39 -43.48938 -65.47511 32530 ft 484 kts 23°
2026-04-28 18:40 -43.43052 -65.42863 32543 ft 488 kts 24°
2026-04-28 18:40 -43.37186 -65.38226 32551 ft 488 kts 23°
2026-04-28 18:41 -43.31302 -65.33578 32550 ft 488 kts 23°
2026-04-28 18:41 -43.25434 -65.28939 32565 ft 486 kts 23°
2026-04-28 18:42 -43.19577 -65.24226 32563 ft 490 kts 24°
2026-04-28 18:42 -43.13646 -65.19809 32562 ft 487 kts 21°
2026-04-28 18:43 -43.07650 -65.15413 32573 ft 487 kts 21°
2026-04-28 18:43 -43.01680 -65.11040 32572 ft 490 kts 22°
2026-04-28 18:44 -42.95644 -65.06617 32563 ft 490 kts 22°
2026-04-28 18:44 -42.86640 -65.00018 32563 ft 492 kts 21°
2026-04-28 18:45 -42.80597 -64.95593 32571 ft 492 kts 22°
2026-04-28 18:45 -42.74559 -64.91162 32578 ft 494 kts 22°
2026-04-28 18:46 -42.68508 -64.86729 32578 ft 496 kts 22°
2026-04-28 18:46 -42.62441 -64.82272 32581 ft 495 kts 22°
2026-04-28 18:47 -42.56395 -64.77840 32584 ft 499 kts 22°
2026-04-28 18:47 -42.50288 -64.73357 32572 ft 500 kts 22°
2026-04-28 18:48 -42.44188 -64.68887 32593 ft 498 kts 22°
2026-04-28 18:48 -42.38050 -64.64474 32578 ft 499 kts 22°
2026-04-28 18:49 -42.32933 -64.60815 32585 ft 500 kts 22°
2026-04-28 18:49 -42.25789 -64.55705 32583 ft 501 kts 22°
2026-04-28 18:50 -42.19657 -64.51327 32597 ft 501 kts 22°
2026-04-28 18:50 -42.13473 -64.46916 32597 ft 503 kts 22°
2026-04-28 18:51 -42.07343 -64.42539 32606 ft 501 kts 23°
2026-04-28 18:51 -42.01191 -64.38147 32609 ft 502 kts 23°
2026-04-28 18:52 -41.95026 -64.33748 32601 ft 503 kts 22°
2026-04-28 18:52 -41.88873 -64.29347 32611 ft 501 kts 22°
2026-04-28 18:53 -41.82713 -64.24950 32623 ft 501 kts 23°
2026-04-28 18:53 -41.76541 -64.20539 32629 ft 501 kts 23°
2026-04-28 18:54 -41.70387 -64.16152 32637 ft 502 kts 22°
2026-04-28 18:54 -41.64228 -64.11843 32645 ft 502 kts 22°
2026-04-28 18:55 -41.59043 -64.08225 32631 ft 504 kts 22°
2026-04-28 18:55 -41.51839 -64.03207 32635 ft 504 kts 22°
2026-04-28 18:56 -41.45625 -63.98891 32638 ft 505 kts 23°
2026-04-28 18:56 -41.39394 -63.94558 32645 ft 507 kts 23°
2026-04-28 18:57 -41.33166 -63.90221 32650 ft 504 kts 23°
2026-04-28 18:57 -41.26966 -63.85912 32654 ft 506 kts 24°
2026-04-28 18:58 -41.20713 -63.81563 32663 ft 506 kts 24°
2026-04-28 18:58 -41.14464 -63.77213 32679 ft 506 kts 24°
2026-04-28 18:59 -41.08226 -63.72872 32681 ft 508 kts 24°
2026-04-28 18:59 -41.01946 -63.68502 32689 ft 508 kts 24°
2026-04-28 19:00 -40.95693 -63.64170 32689 ft 508 kts 24°
2026-04-28 19:00 -40.89408 -63.59887 32683 ft 507 kts 24°
2026-04-28 19:01 -40.83129 -63.55616 32671 ft 507 kts 24°
2026-04-28 19:01 -40.76896 -63.51389 32687 ft 509 kts 24°
2026-04-28 19:02 -40.70571 -63.47101 32690 ft 508 kts 24°
2026-04-28 19:02 -40.64239 -63.42808 32710 ft 509 kts 25°
2026-04-28 19:03 -40.57957 -63.38546 32704 ft 509 kts 24°
2026-04-28 19:03 -40.51644 -63.34266 32715 ft 509 kts 24°
2026-04-28 19:04 -40.45311 -63.29968 32704 ft 509 kts 24°
2026-04-28 19:04 -40.39013 -63.25699 32699 ft 510 kts 25°
2026-04-28 19:05 -40.32724 -63.21431 32706 ft 510 kts 24°
2026-04-28 19:05 -40.26399 -63.17134 32714 ft 511 kts 24°
2026-04-28 19:06 -40.21166 -63.13612 32704 ft 509 kts 24°
2026-04-28 19:06 -40.13769 -63.08693 32710 ft 511 kts 24°
2026-04-28 19:07 -40.07424 -63.04494 32738 ft 513 kts 24°
2026-04-28 19:07 -40.01047 -63.00271 32742 ft 512 kts 24°
2026-04-28 19:08 -39.94690 -62.96067 32751 ft 511 kts 24°
2026-04-28 19:08 -39.88370 -62.91885 32744 ft 511 kts 24°
2026-04-28 19:09 -39.82048 -62.87703 32748 ft 512 kts 24°
2026-04-28 19:09 -39.75703 -62.83506 32749 ft 511 kts 25°
2026-04-28 19:10 -39.69379 -62.79321 32753 ft 512 kts 25°
2026-04-28 19:10 -39.63027 -62.75116 32747 ft 512 kts 25°
2026-04-28 19:11 -39.56656 -62.70900 32751 ft 512 kts 26°
2026-04-28 19:11 -39.50300 -62.66689 32756 ft 513 kts 26°
2026-04-28 19:12 -39.43950 -62.62548 32759 ft 512 kts 25°
2026-04-28 19:12 -39.37589 -62.58431 32763 ft 512 kts 25°
2026-04-28 19:13 -39.31210 -62.54304 32757 ft 512 kts 26°
2026-04-28 19:13 -39.24829 -62.50184 32764 ft 511 kts 25°
2026-04-28 19:14 -39.18457 -62.46069 32774 ft 513 kts 26°
2026-04-28 19:14 -39.12008 -62.41907 32777 ft 514 kts 26°
2026-04-28 19:15 -39.05610 -62.37769 32788 ft 514 kts 26°
2026-04-28 19:15 -39.00327 -62.34358 32793 ft 513 kts 26°
2026-04-28 19:16 -38.92922 -62.29577 32795 ft 513 kts 25°
2026-04-28 19:16 -38.86543 -62.25451 32786 ft 514 kts 26°
2026-04-28 19:17 -38.80233 -62.21377 32799 ft 515 kts 26°
2026-04-28 19:17 -38.73920 -62.17294 32803 ft 514 kts 26°
2026-04-28 19:18 -38.67735 -62.12649 32793 ft 515 kts 38°
2026-04-28 19:18 -38.62052 -62.07188 32800 ft 514 kts 37°
2026-04-28 19:19 -38.56245 -62.01814 32814 ft 516 kts 37°
2026-04-28 19:19 -38.50398 -61.96498 32806 ft 515 kts 36°
2026-04-28 19:20 -38.44540 -61.91225 32820 ft 515 kts 36°
2026-04-28 19:20 -38.38670 -61.85954 32814 ft 516 kts 36°
2026-04-28 19:21 -38.32830 -61.80716 32821 ft 516 kts 37°
2026-04-28 19:21 -38.26952 -61.75447 32829 ft 517 kts 37°
2026-04-28 19:22 -38.22046 -61.71057 32843 ft 516 kts 37°
2026-04-28 19:22 -38.15161 -61.64879 32841 ft 518 kts 37°
2026-04-28 19:23 -38.09277 -61.59605 32846 ft 518 kts 37°
2026-04-28 19:23 -38.03442 -61.54376 32846 ft 516 kts 37°
2026-04-28 19:24 -37.97586 -61.49165 32847 ft 517 kts 37°
2026-04-28 19:24 -37.91688 -61.43987 32848 ft 517 kts 37°
2026-04-28 19:25 -37.85741 -61.38783 32833 ft 516 kts 37°
2026-04-28 19:25 -37.79843 -61.33622 32831 ft 518 kts 36°
2026-04-28 19:26 -37.73958 -61.28470 32830 ft 519 kts 36°
2026-04-28 19:26 -37.68089 -61.23342 32830 ft 518 kts 36°
2026-04-28 19:27 -37.62178 -61.18172 32839 ft 518 kts 36°
2026-04-28 19:27 -37.56236 -61.12973 32842 ft 519 kts 37°
2026-04-28 19:28 -37.50310 -61.07785 32851 ft 518 kts 36°
2026-04-28 19:28 -37.44420 -61.02625 32852 ft 517 kts 37°
2026-04-28 19:29 -37.39496 -60.98313 32852 ft 518 kts 37°
2026-04-28 19:29 -37.32609 -60.92276 32853 ft 518 kts 37°
2026-04-28 19:30 -37.26679 -60.87169 32860 ft 517 kts 37°
2026-04-28 19:30 -37.20732 -60.82068 32858 ft 519 kts 36°
2026-04-28 19:31 -37.14751 -60.76953 32866 ft 518 kts 37°
2026-04-28 19:31 -37.08782 -60.71845 32874 ft 518 kts 37°
2026-04-28 19:32 -37.02843 -60.66771 32875 ft 518 kts 37°
2026-04-28 19:32 -36.96888 -60.61680 32878 ft 518 kts 37°
2026-04-28 19:33 -36.90935 -60.56585 32888 ft 519 kts 37°
2026-04-28 19:33 -36.85038 -60.51539 32871 ft 517 kts 37°
2026-04-28 19:34 -36.79082 -60.46444 32872 ft 517 kts 37°
2026-04-28 19:34 -36.73155 -60.41364 32876 ft 518 kts 37°
2026-04-28 19:35 -36.67240 -60.36298 32876 ft 519 kts 37°
2026-04-28 19:35 -36.61292 -60.31233 32871 ft 519 kts 37°
2026-04-28 19:36 -36.55291 -60.26189 32878 ft 520 kts 37°
2026-04-28 19:36 -36.49301 -60.21175 32882 ft 519 kts 37°
2026-04-28 19:37 -36.44304 -60.16991 32882 ft 521 kts 37°
2026-04-28 19:37 -36.37331 -60.11160 32889 ft 518 kts 37°
2026-04-28 19:38 -36.31350 -60.06157 32903 ft 520 kts 37°
2026-04-28 19:38 -36.25357 -60.01141 32898 ft 520 kts 37°
2026-04-28 19:39 -36.19394 -59.96153 32902 ft 519 kts 38°
2026-04-28 19:39 -36.13411 -59.91140 32903 ft 518 kts 37°
2026-04-28 19:40 -36.07470 -59.86166 32909 ft 518 kts 38°
2026-04-28 19:40 -36.01520 -59.81180 32913 ft 518 kts 37°
2026-04-28 19:41 -35.95544 -59.76173 32914 ft 517 kts 38°
2026-04-28 19:41 -35.89555 -59.71219 32911 ft 517 kts 37°
2026-04-28 19:42 -35.83594 -59.66314 32903 ft 516 kts 38°
2026-04-28 19:42 -35.78651 -59.62246 32903 ft 514 kts 37°
2026-04-28 19:43 -35.71717 -59.56546 32909 ft 516 kts 37°
2026-04-28 19:43 -35.65758 -59.51652 32905 ft 515 kts 38°
2026-04-28 19:44 -35.59794 -59.46738 32907 ft 516 kts 38°
2026-04-28 19:44 -35.53816 -59.41821 32921 ft 516 kts 37°
2026-04-28 19:45 -35.47923 -59.36923 32913 ft 512 kts 43°
2026-04-28 19:45 -35.45372 -59.33953 32923 ft 503 kts 55°
2026-04-28 19:45 -35.43382 -59.30458 32916 ft 492 kts 69°
2026-04-28 19:46 -35.42111 -59.26662 32624 ft 475 kts 80°
2026-04-28 19:46 -35.41079 -59.22811 31110 ft 486 kts 78°
2026-04-28 19:46 -35.39970 -59.18957 29959 ft 485 kts 76°
2026-04-28 19:46 -35.38812 -59.15132 29342 ft 472 kts 76°
2026-04-28 19:47 -35.37652 -59.11418 28187 ft 474 kts 75°
2026-04-28 19:47 -35.36452 -59.07658 27385 ft 466 kts 74°
2026-04-28 19:47 -35.35276 -59.04022 26515 ft 461 kts 73°